User: anonymous   Login
Location: Caltech
(34.1382°N, 118.1253°W)
Time: 13:50:19
(UTC-07:00)
Language:

Iridium 65 - Orbit

View from above orbital plane
View from above orbital plane
View from above satellite
View from above satellite

Ground track
Ground track

The orbit data is extracted from the following two-line orbital elements,

1 25288U 98021D   17207.72161762 -.00000037 +00000-0 -20355-4 0  9995
2 25288 086.3962 207.3224 0002124 088.6544 271.4895 14.34216540010406
Epoch (UTC): 26 July 2017 17:19:07
Eccentricity: 0.0002124
inclination: 86.3962°
perigee height: 776 km
apogee height: 779 km
right ascension of ascending node: 207.3224°
argument of perigee: 88.6544°
revolutions per day: 14.34216540
mean anomaly at epoch: 271.4895°
orbit number at epoch: 1040

The dashed part of the orbit path shows where the satellite is in the earth's shadow,  

DLR